EW5967 Weather Reports


Display with metric or nautical units.
time (UTC)temp
F
wind
direction
speed
MPH
gust
MPH
rain 1hr
in
rain 24hr
in
rain mn
in
humidity
%
barometer
mb
20240624021559 99 267 5.0 10.0 0.00 0.00 0.00 16 1000.6
20240624021046 99 274 6.0 13.0 0.00 0.00 0.00 16 1000.5
20240624020545 99 235 5.0 13.0 0.00 0.00 0.00 16 1000.5
20240624020059 100 265 4.0 11.0 0.00 0.00 0.00 16 1000.5
20240624015550 100 272 4.0 12.0 0.00 0.00 0.00 16 1000.5
20240624015046 100 232 5.0 12.0 0.00 0.00 0.00 15 1000.5
20240624014552 100 254 6.0 13.0 0.00 0.00 0.00 15 1000.6
20240624014049 100 275 4.0 13.0 0.00 0.00 0.00 16 1000.6
20240624013546 100 220 6.0 13.0 0.00 0.00 0.00 16 1000.5
20240624013045 100 243 6.0 13.0 0.00 0.00 0.00 15 1000.6
20240624012547 101 249 5.0 15.0 0.00 0.00 0.00 16 1000.6
20240624012044 101 246 7.0 11.0 0.00 0.00 0.00 15 1000.6
20240624011550 101 231 5.0 10.0 0.00 0.00 0.00 15 1000.5
20240624011045 101 229 5.0 12.0 0.00 0.00 0.00 16 1000.4
20240624010546 101 255 6.0 12.0 0.00 0.00 0.00 16 1000.5
20240624010043 102 239 7.0 11.0 0.00 0.00 0.00 15 1000.4
20240624005543 102 240 5.0 12.0 0.00 0.00 0.00 16 1000.5
20240624005043 102 240 4.0 11.0 0.00 0.00 0.00 15 1000.5
20240624004542 102 246 5.0 12.0 0.00 0.00 0.00 16 1000.4
20240624004042 102 229 4.0 17.0 0.00 0.00 0.00 16 1000.5
20240624003545 102 227 4.0 16.0 0.00 0.00 0.00 16 1000.5
20240624003042 102 235 5.0 13.0 0.00 0.00 0.00 16 1000.6
20240624002541 102 229 5.0 12.0 0.00 0.00 0.00 16 1000.6
20240624002040 103 263 4.0 10.0 0.00 0.00 0.00 16 1000.6
20240624001540 103 221 5.0 11.0 0.00 0.00 0.00 15 1000.6
20240624001040 103 234 4.0 10.0 0.00 0.00 0.00 16 1000.7
20240624000543 103 191 5.0 10.0 0.00 0.00 0.00 15 1000.6
20240624000039 103 255 5.0 10.0 0.00 0.00 0.00 15 1000.7
20240623235538 103 271 4.0 11.0 0.00 0.00 0.00 15 1000.9
20240623235037 103 207 5.0 11.0 0.00 0.00 0.00 14 1000.9
20240623234536 103 235 4.0 11.0 0.00 0.00 0.00 14 1000.9
20240623234036 104 207 5.0 11.0 0.00 0.00 0.00 14 1001.0
20240623233535 103 253 4.0 12.0 0.00 0.00 0.00 14 1001.1
20240623233038 103 217 5.0 12.0 0.00 0.00 0.00 14 1001.1
20240623232534 103 197 6.0 10.0 0.00 0.00 0.00 14 1001.2
20240623232033 103 205 4.0 10.0 0.00 0.00 0.00 14 1001.2
20240623231532 104 192 4.0 9.0 0.00 0.00 0.00 14 1001.3
20240623231029 104 271 5.0 10.0 0.00 0.00 0.00 14 1001.3
20240623230529 104 236 4.0 13.0 0.00 0.00 0.00 14 1001.5
20240623230027 104 260 5.0 12.0 0.00 0.00 0.00 14 1001.4
20240623225525 103 268 7.0 17.0 0.00 0.00 0.00 14 1001.5
20240623225024 103 164 8.0 18.0 0.00 0.00 0.00 15 1001.6
20240623224543 103 171 5.0 9.0 0.00 0.00 0.00 15 1001.7
20240623224023 103 205 6.0 15.0 0.00 0.00 0.00 15 1001.8
20240623223523 102 209 5.0 15.0 0.00 0.00 0.00 15 1001.8
20240623223027 102 169 5.0 14.0 0.00 0.00 0.00 16 1001.9
20240623222520 102 170 4.0 15.0 0.00 0.00 0.00 16 1002.1
20240623222020 102 205 9.0 15.0 0.00 0.00 0.00 16 1002.1
20240623221520 103 217 6.0 14.0 0.00 0.00 0.00 16 1002.1
20240623221019 104 240 4.0 11.0 0.00 0.00 0.00 15 1002.3
20240623220519 104 263 3.0 15.0 0.00 0.00 0.00 14 1002.4
20240623220018 104 269 6.0 15.0 0.00 0.00 0.00 14 1002.4
20240623215517 104 238 5.0 12.0 0.00 0.00 0.00 14 1002.4
20240623215017 104 257 6.0 12.0 0.00 0.00 0.00 14 1002.5
20240623214518 104 182 5.0 11.0 0.00 0.00 0.00 15 1002.5
20240623214019 103 282 6.0 11.0 0.00 0.00 0.00 15 1002.6
20240623213515 104 236 4.0 11.0 0.00 0.00 0.00 14 1002.7
20240623213014 103 235 5.0 11.0 0.00 0.00 0.00 14 1002.7
20240623212514 103 250 4.0 15.0 0.00 0.00 0.00 15 1002.8
20240623212015 103 263 5.0 15.0 0.00 0.00 0.00 15 1002.9
20240623211513 103 227 4.0 11.0 0.00 0.00 0.00 15 1003.0
20240623211011 103 209 5.0 11.0 0.00 0.00 0.00 15 1003.0
20240623210511 103 268 5.0 10.0 0.00 0.00 0.00 15 1003.2
20240623210013 103 221 5.0 10.0 0.00 0.00 0.00 15 1003.2
20240623205509 103 267 3.0 11.0 0.00 0.00 0.00 15 1003.3
20240623205009 103 261 5.0 11.0 0.00 0.00 0.00 15 1003.3
20240623204523 102 220 4.0 10.0 0.00 0.00 0.00 15 1003.3
20240623204007 102 210 2.0 8.0 0.00 0.00 0.00 16 1003.4
20240623203508 102 236 2.0 8.0 0.00 0.00 0.00 16 1003.6
20240623203008 102 225 1.0 9.0 0.00 0.00 0.00 16 1003.6
20240623202507 103 191 3.0 9.0 0.00 0.00 0.00 15 1003.7
20240623202006 103 237 3.0 7.0 0.00 0.00 0.00 16 1003.8
20240623201513 102 241 4.0 7.0 0.00 0.00 0.00 16 1003.8
20240623201002 101 246 1.0 9.0 0.00 0.00 0.00 16 1003.9
20240623200502 101 231 3.0 9.0 0.00 0.00 0.00 17 1004.0
20240623200004 101 171 2.0 11.0 0.00 0.00 0.00 17 1004.0
20240623195603 100 142 1.0 11.0 0.00 0.00 0.00 17 1004.1
20240623195101 100 101 1.0 8.0 0.00 0.00 0.00 17 1004.2
20240623194559 100 215 4.0 8.0 0.00 0.00 0.00 17 1004.2
20240623194059 100 152 4.0 13.0 0.00 0.00 0.00 17 1004.3
20240623193558 100 195 6.0 13.0 0.00 0.00 0.00 17 1004.2
20240623193107 99 144 4.0 14.0 0.00 0.00 0.00 17 1004.3
20240623192558 100 128 8.0 14.0 0.00 0.00 0.00 17 1004.3
20240623192057 100 65 3.0 14.0 0.00 0.00 0.00 17 1004.3
20240623191559 99 103 6.0 14.0 0.00 0.00 0.00 17 1004.5
20240623191056 100 155 6.0 11.0 0.00 0.00 0.00 17 1004.5
20240623190555 99 101 5.0 11.0 0.00 0.00 0.00 17 1004.6
20240623190103 99 164 5.0 12.0 0.00 0.00 0.00 18 1004.7
20240623185559 99 124 3.0 12.0 0.00 0.00 0.00 18 1004.8
20240623185059 99 122 4.0 10.0 0.00 0.00 0.00 17 1004.8
20240623184557 99 53 3.0 7.0 0.00 0.00 0.00 17 1004.9
20240623184053 99 196 1.0 5.0 0.00 0.00 0.00 18 1005.0
20240623183552 98 144 1.0 10.0 0.00 0.00 0.00 18 1005.0
20240623183051 98 132 3.0 10.0 0.00 0.00 0.00 18 1005.1
20240623182551 98 92 5.0 9.0 0.00 0.00 0.00 18 1005.1
20240623182054 98 113 2.0 9.0 0.00 0.00 0.00 18 1005.1
20240623181549 97 84 5.0 13.0 0.00 0.00 0.00 18 1005.2
20240623181048 97 95 6.0 13.0 0.00 0.00 0.00 18 1005.3
20240623180550 97 132 4.0 9.0 0.00 0.00 0.00 19 1005.4
20240623180048 97 132 2.0 10.0 0.00 0.00 0.00 19 1005.4
20240623175547 97 83 6.0 10.0 0.00 0.00 0.00 18 1005.4
20240623175046 96 103 4.0 8.0 0.00 0.00 0.00 19 1005.5
20240623174546 95 142 4.0 9.0 0.00 0.00 0.00 20 1005.5
20240623174047 95 165 5.0 9.0 0.00 0.00 0.00 20 1005.5
20240623173544 95 140 4.0 11.0 0.00 0.00 0.00 20 1005.6
20240623173118 95 154 4.0 11.0 0.00 0.00 0.00 20 1005.5
20240623172545 95 153 3.0 9.0 0.00 0.00 0.00 20 1005.5
20240623172041 94 113 2.0 7.0 0.00 0.00 0.00 20 1005.5
20240623171541 94 106 3.0 8.0 0.00 0.00 0.00 21 1005.7
20240623171042 93 92 2.0 9.0 0.00 0.00 0.00 21 1005.7
20240623170543 93 70 4.0 8.0 0.00 0.00 0.00 21 1005.6
20240623170039 94 130 3.0 8.0 0.00 0.00 0.00 20 1005.7
20240623165539 93 119 3.0 7.0 0.00 0.00 0.00 21 1005.6
20240623165039 93 107 3.0 7.0 0.00 0.00 0.00 21 1005.7
20240623164539 94 97 1.0 5.0 0.00 0.00 0.00 20 1005.6
20240623164038 93 69 2.0 4.0 0.00 0.00 0.00 21 1005.6
20240623163538 93 83 2.0 6.0 0.00 0.00 0.00 21 1005.7
20240623163043 93 88 2.0 6.0 0.00 0.00 0.00 21 1005.8
20240623162537 93 60 2.0 5.0 0.00 0.00 0.00 21 1005.8
20240623162038 93 50 1.0 4.0 0.00 0.00 0.00 20 1005.8
20240623161539 93 50 1.0 4.0 0.00 0.00 0.00 21 1005.9
20240623161036 93 48 1.0 4.0 0.00 0.00 0.00 22 1005.9
20240623160535 92 48 0.0 3.0 0.00 0.00 0.00 22 1005.9
20240623160034 92 48 2.0 3.0 0.00 0.00 0.00 22 1005.9
20240623155533 91 48 1.0 3.0 0.00 0.00 0.00 22 1006.0
20240623155031 92 48 1.0 3.0 0.00 0.00 0.00 21 1006.0
20240623154532 91 48 1.0 4.0 0.00 0.00 0.00 23 1006.1
20240623154029 91 48 2.0 4.0 0.00 0.00 0.00 22 1006.0
20240623153529 91 48 2.0 4.0 0.00 0.00 0.00 22 1006.1
20240623153031 90 48 2.0 4.0 0.00 0.00 0.00 22 1006.1
20240623152531 90 41 2.0 4.0 0.00 0.00 0.00 23 1006.0
20240623152028 90 34 1.0 5.0 0.00 0.00 0.00 24 1006.1
20240623151528 89 30 3.0 6.0 0.00 0.00 0.00 24 1006.0
20240623151028 89 57 3.0 6.0 0.00 0.00 0.00 25 1006.0
20240623150527 89 40 2.0 5.0 0.00 0.00 0.00 25 1005.9
20240623150027 89 51 1.0 6.0 0.00 0.00 0.00 26 1005.9
20240623145527 89 59 2.0 6.0 0.00 0.00 0.00 25 1005.9
20240623145028 89 28 3.0 5.0 0.00 0.00 0.00 25 1005.8
20240623144528 88 43 1.0 6.0 0.00 0.00 0.00 26 1005.8
20240623144024 88 74 2.0 6.0 0.00 0.00 0.00 26 1005.8
20240623143524 88 46 2.0 5.0 0.00 0.00 0.00 26 1005.7
20240623143028 88 36 3.0 6.0 0.00 0.00 0.00 26 1005.8
20240623142522 88 43 2.0 5.0 0.00 0.00 0.00 27 1005.8
20240623142022 88 46 2.0 6.0 0.00 0.00 0.00 27 1005.7
20240623141521 88 89 2.0 6.0 0.00 0.00 0.00 27 1005.7
20240623141023 88 47 2.0 5.0 0.00 0.00 0.00 25 1005.6
20240623140520 88 11 1.0 6.0 0.00 0.00 0.00 25 1005.4
20240623140020 88 28 2.0 6.0 0.00 0.00 0.00 25 1005.5
20240623135519 87 307 0.0 4.0 0.00 0.00 0.00 26 1005.6
20240623135019 87 342 2.0 4.0 0.00 0.00 0.00 26 1005.7
20240623134518 87 342 1.0 3.0 0.00 0.00 0.00 25 1005.7
20240623134017 87 342 1.0 3.0 0.00 0.00 0.00 24 1005.7
20240623133516 86 328 0.0 2.0 0.00 0.00 0.00 24 1005.6
20240623133016 86 350 0.0 2.0 0.00 0.00 0.00 23 1005.6
20240623132516 86 350 1.0 2.0 0.00 0.00 0.00 23 1005.6
20240623132015 85 350 0.0 3.0 0.00 0.00 0.00 23 1005.6
20240623131514 85 350 0.0 3.0 0.00 0.00 0.00 23 1005.6
20240623131013 85 350 0.0 3.0 0.00 0.00 0.00 23 1005.5
20240623130517 84 350 1.0 4.0 0.00 0.00 0.00 23 1005.5
20240623130013 84 350 1.0 3.0 0.00 0.00 0.00 23 1005.5
20240623125515 84 350 1.0 3.0 0.00 0.00 0.00 23 1005.5
20240623125013 84 350 1.0 3.0 0.00 0.00 0.00 23 1005.5
20240623124513 84 350 1.0 3.0 0.00 0.00 0.00 23 1005.4
20240623124016 83 350 1.0 2.0 0.00 0.00 0.00 23 1005.4
20240623123512 83 350 1.0 3.0 0.00 0.00 0.00 24 1005.4
20240623123013 83 350 2.0 4.0 0.00 0.00 0.00 24 1005.4
20240623122511 82 351 1.0 3.0 0.00 0.00 0.00 24 1005.4
20240623122010 83 351 0.0 2.0 0.00 0.00 0.00 24 1005.2
20240623121524 83 351 0.0 3.0 0.00 0.00 0.00 24 1005.3
20240623121010 83 351 1.0 3.0 0.00 0.00 0.00 24 1005.2
20240623120509 83 351 0.0 2.0 0.00 0.00 0.00 25 1005.1
20240623120012 83 351 1.0 2.0 0.00 0.00 0.00 24 1005.2
20240623115507 83 351 0.0 2.0 0.00 0.00 0.00 24 1005.3
20240623115007 84 351 0.0 2.0 0.00 0.00 0.00 24 1005.3
20240623114507 85 351 0.0 3.0 0.00 0.00 0.00 24 1005.2
20240623114005 84 351 1.0 3.0 0.00 0.00 0.00 24 1005.2
20240623113505 84 351 1.0 3.0 0.00 0.00 0.00 24 1005.2
20240623113005 84 351 0.0 2.0 0.00 0.00 0.00 24 1005.1
20240623112504 84 351 1.0 2.0 0.00 0.00 0.00 24 1005.1
20240623112003 84 351 0.0 2.0 0.00 0.00 0.00 24 1005.1
20240623111502 85 351 0.0 2.0 0.00 0.00 0.00 24 1005.0
20240623111001 85 351 0.0 2.0 0.00 0.00 0.00 24 1005.0
20240623110504 85 351 0.0 2.0 0.00 0.00 0.00 23 1005.0
20240623110001 86 351 0.0 2.0 0.00 0.00 0.00 23 1005.0
20240623105500 86 351 0.0 3.0 0.00 0.00 0.00 23 1005.0
20240623105002 86 355 2.0 3.0 0.00 0.00 0.00 23 1004.9
20240623104501 85 355 1.0 3.0 0.00 0.00 0.00 24 1004.9
20240623104100 85 355 1.0 5.0 0.00 0.00 0.00 24 1005.0
20240623103601 85 355 1.0 5.0 0.00 0.00 0.00 24 1004.9
20240623103102 85 276 2.0 6.0 0.00 0.00 0.00 24 1004.9
20240623102558 85 250 0.0 3.0 0.00 0.00 0.00 23 1004.9
20240623102057 86 250 1.0 3.0 0.00 0.00 0.00 23 1004.9
20240623101557 86 250 1.0 3.0 0.00 0.00 0.00 23 1004.9
20240623101058 86 250 1.0 3.0 0.00 0.00 0.00 21 1004.9
20240623100553 87 250 0.0 3.0 0.00 0.00 0.00 21 1004.8
20240623100054 87 250 0.0 3.0 0.00 0.00 0.00 17 1004.8
20240623095557 88 250 1.0 3.0 0.00 0.00 0.00 16 1004.6
20240623095053 88 250 1.0 3.0 0.00 0.00 0.00 16 1004.6
20240623094600 88 250 2.0 5.0 0.00 0.00 0.00 16 1004.5
20240623094053 88 250 2.0 5.0 0.00 0.00 0.00 16 1004.6
20240623093553 88 250 2.0 4.0 0.00 0.00 0.00 17 1004.6
20240623093053 87 250 2.0 4.0 0.00 0.00 0.00 18 1004.6
20240623092554 87 251 1.0 3.0 0.00 0.00 0.00 19 1004.6
20240623092051 87 251 1.0 3.0 0.00 0.00 0.00 20 1004.6
20240623091550 87 251 1.0 2.0 0.00 0.00 0.00 20 1004.6
20240623091050 87 251 0.0 2.0 0.00 0.00 0.00 20 1004.8
20240623090550 87 251 1.0 2.0 0.00 0.00 0.00 21 1004.8
20240623090052 88 251 0.0 2.0 0.00 0.00 0.00 20 1004.7
20240623085548 88 251 0.0 3.0 0.00 0.00 0.00 20 1004.6
20240623085046 89 251 1.0 3.0 0.00 0.00 0.00 20 1004.7
20240623084546 89 251 0.0 4.0 0.00 0.00 0.00 19 1004.6
20240623084045 89 251 1.0 4.0 0.00 0.00 0.00 19 1004.7
20240623083544 89 251 2.0 4.0 0.00 0.00 0.00 19 1004.6
20240623083048 90 251 2.0 5.0 0.00 0.00 0.00 19 1004.7
20240623082544 89 252 2.0 5.0 0.00 0.00 0.00 20 1004.7
20240623082045 89 252 1.0 5.0 0.00 0.00 0.00 20 1004.7
20240623081543 89 252 2.0 5.0 0.00 0.00 0.00 20 1004.7
20240623081045 89 253 2.0 5.0 0.00 0.00 0.00 20 1004.7
20240623080542 89 253 2.0 5.0 0.00 0.00 0.00 20 1004.7
20240623080042 90 251 2.0 5.0 0.00 0.00 0.00 21 1004.6
20240623075540 90 248 1.0 4.0 0.00 0.00 0.00 21 1004.7
20240623075040 90 248 2.0 4.0 0.00 0.00 0.00 21 1004.6
20240623074544 90 250 2.0 4.0 0.00 0.00 0.00 21 1004.7
20240623074039 90 249 1.0 4.0 0.00 0.00 0.00 21 1004.8
20240623073540 91 252 1.0 8.0 0.00 0.00 0.00 20 1004.8
20240623073037 91 237 2.0 8.0 0.00 0.00 0.00 20 1004.8
20240623072537 91 238 3.0 9.0 0.00 0.00 0.00 20 1004.9
20240623072035 91 263 3.0 9.0 0.00 0.00 0.00 20 1004.8
20240623071534 91 256 2.0 4.0 0.00 0.00 0.00 20 1004.9
20240623071035 91 256 2.0 4.0 0.00 0.00 0.00 20 1005.0
20240623070533 91 258 2.0 6.0 0.00 0.00 0.00 19 1005.0
20240623070033 91 259 2.0 4.0 0.00 0.00 0.00 19 1004.9
20240623065533 90 262 1.0 3.0 0.00 0.00 0.00 19 1004.9
20240623065032 90 262 1.0 3.0 0.00 0.00 0.00 19 1005.0
20240623064539 90 262 1.0 3.0 0.00 0.00 0.00 19 1004.9
20240623064032 91 262 1.0 3.0 0.00 0.00 0.00 18 1004.8
20240623063532 92 262 1.0 3.0 0.00 0.00 0.00 18 1004.8
20240623063033 92 262 1.0 4.0 0.00 0.00 0.00 17 1004.7
20240623062530 92 263 1.0 4.0 0.00 0.00 0.00 17 1004.7
20240623062034 92 263 2.0 7.0 0.00 0.00 0.00 17 1004.6
20240623061530 92 263 2.0 7.0 0.00 0.00 0.00 17 1004.5
20240623061033 92 261 3.0 7.0 0.00 0.00 0.00 17 1004.4
20240623060530 93 256 2.0 7.0 0.00 0.00 0.00 17 1004.4
20240623060038 93 254 2.0 7.0 0.00 0.00 0.00 17 1004.4
20240623055529 93 250 2.0 7.0 0.00 0.00 0.00 17 1004.4
20240623055030 93 250 3.0 7.0 0.00 0.00 0.00 17 1004.4
20240623054535 93 250 1.0 7.0 0.00 0.00 0.00 17 1004.3
20240623054032 93 252 3.0 7.0 0.00 0.00 0.00 17 1004.3
20240623053528 93 240 3.0 7.0 0.00 0.00 0.00 17 1004.3
20240623053029 93 238 2.0 4.0 0.00 0.00 0.00 17 1004.2
20240623052533 93 237 2.0 4.0 0.00 0.00 0.00 17 1004.1
20240623052029 93 237 2.0 4.0 0.00 0.00 0.00 17 1004.1
20240623051530 93 237 2.0 4.0 0.00 0.00 0.00 17 1004.1
20240623051030 94 237 2.0 7.0 0.00 0.00 0.00 17 1004.2
20240623050529 94 237 2.0 7.0 0.00 0.00 0.00 17 1004.2
20240623050028 94 240 3.0 5.0 0.00 0.00 0.00 17 1004.1
20240623045528 94 242 2.0 5.0 0.00 0.00 0.00 17 1004.0
20240623045032 94 243 2.0 7.0 0.00 0.00 0.00 17 1003.9
20240623044531 95 248 3.0 7.0 0.00 0.00 0.00 17 1003.9
20240623044027 95 250 3.0 5.0 0.00 0.00 0.00 17 1003.9
20240623043527 95 252 3.0 8.0 0.00 0.00 0.00 17 1003.8
20240623043027 95 240 3.0 11.0 0.00 0.00 0.00 17 1003.8
20240623042526 95 260 5.0 11.0 0.00 0.00 0.00 17 1003.7
20240623042030 95 256 4.0 10.0 0.00 0.00 0.00 17 1003.6
20240623041541 95 259 4.0 8.0 0.00 0.00 0.00 17 1003.6
20240623041025 95 248 3.0 9.0 0.00 0.00 0.00 17 1003.5
20240623040526 95 257 4.0 9.0 0.00 0.00 0.00 17 1003.4
20240623040028 95 268 4.0 10.0 0.00 0.00 0.00 17 1003.4
20240623035525 95 267 4.0 10.0 0.00 0.00 0.00 17 1003.3
20240623035029 95 250 3.0 7.0 0.00 0.00 0.00 17 1003.3
20240623034525 96 252 3.0 8.0 0.00 0.00 0.00 17 1003.1
20240623034024 96 257 3.0 9.0 0.00 0.00 0.00 17 1003.1
20240623033528 96 252 2.0 9.0 0.00 0.00 0.00 17 1003.0
20240623033124 96 261 4.0 9.0 0.00 0.00 0.00 17 1003.0
20240623032523 96 258 4.0 11.0 0.00 0.00 0.00 17 1003.0
20240623032024 96 263 4.0 11.0 0.00 0.00 0.00 17 1002.9
20240623031523 96 241 2.0 11.0 0.00 0.00 0.00 17 1002.9
20240623031024 96 267 5.0 9.0 0.00 0.00 0.00 16 1002.9
20240623030532 97 293 3.0 10.0 0.00 0.00 0.00 16 1002.8
20240623030023 97 275 3.0 9.0 0.00 0.00 0.00 16 1002.7
20240623025523 97 262 3.0 9.0 0.00 0.00 0.00 16 1002.7
20240623025023 97 254 3.0 8.0 0.00 0.00 0.00 16 1002.6
20240623024525 97 261 3.0 11.0 0.00 0.00 0.00 16 1002.6
20240623024026 98 225 3.0 11.0 0.00 0.00 0.00 16 1002.6
20240623023523 98 263 4.0 11.0 0.00 0.00 0.00 16 1002.5
20240623023021 98 222 5.0 11.0 0.00 0.00 0.00 16 1002.4
20240623022528 98 259 3.0 7.0 0.00 0.00 0.00 15 1002.5
20240623022025 98 215 3.0 10.0 0.00 0.00 0.00 15 1002.4